Hourly Weather Barlinek

Today, 18 April, Sunday

Time Temperature Precipitation Wind Pressure Humidity
00:00 +7°C° 0 mm 2 mps 758 mmHg 92%
01:00 +6°C° 0 mm 2 mps 758 mmHg 93%
02:00 +6°C° 0 mm 2 mps 758 mmHg 94%
03:00 +6°C° 0 mm 2 mps 758 mmHg 94%
04:00 +6°C° 0 mm 2 mps 758 mmHg 95%
05:00 +7°C° 0.1 mm 2 mps 758 mmHg 93%
06:00 +7°C° 0.1 mm 3 mps 758 mmHg 91%
07:00 +8°C° 0.1 mm 3 mps 758 mmHg 90%
08:00 +9°C° 0.1 mm 3 mps 758 mmHg 87%
09:00 +9°C° 0.1 mm 3 mps 758 mmHg 84%
10:00 +10°C° 0.1 mm 3 mps 758 mmHg 82%
11:00 +11°C° 0.3 mm 3 mps 758 mmHg 75%
12:00 +12°C° 0.3 mm 4 mps 758 mmHg 68%
13:00 +13°C° 0.3 mm 4 mps 758 mmHg 61%
14:00 +13°C° 0.4 mm 4 mps 758 mmHg 62%
15:00 +13°C° 0.4 mm 3 mps 757 mmHg 64%
16:00 +13°C° 0.4 mm 3 mps 757 mmHg 65%
17:00 +11°C° 0.2 mm 3 mps 758 mmHg 71%
18:00 +10°C° 0.2 mm 3 mps 758 mmHg 78%
19:00 +9°C° 0.2 mm 3 mps 758 mmHg 84%
20:00 +8°C° 0 mm 3 mps 758 mmHg 86%
21:00 +8°C° 0 mm 3 mps 759 mmHg 89%
22:00 +7°C° 0 mm 3 mps 759 mmHg 92%
23:00 +7°C° 0 mm 2 mps 759 mmHg 92%

Tomorrow, 19 April, Monday

Time Temperature Precipitation Wind Pressure Humidity
00:00 +7°C° 0 mm 2 mps 759 mmHg 93%
01:00 +6°C° 0 mm 2 mps 759 mmHg 94%
02:00 +6°C° 0 mm 2 mps 759 mmHg 94%
03:00 +6°C° 0 mm 2 mps 759 mmHg 94%
04:00 +6°C° 0 mm 2 mps 759 mmHg 94%
05:00 +6°C° 0 mm 2 mps 759 mmHg 91%
06:00 +7°C° 0 mm 2 mps 759 mmHg 89%
07:00 +9°C° 0 mm 1 mps 759 mmHg 86%
08:00 +9°C° 0 mm 2 mps 759 mmHg 85%
09:00 +9°C° 0 mm 2 mps 759 mmHg 83%
10:00 +10°C° 0 mm 2 mps 759 mmHg 82%
11:00 +12°C° 0 mm 2 mps 758 mmHg 79%
12:00 +13°C° 0 mm 2 mps 758 mmHg 76%
13:00 +14°C° 0 mm 2 mps 758 mmHg 74%
14:00 +15°C° 0.3 mm 2 mps 758 mmHg 69%
15:00 +15°C° 0.3 mm 2 mps 757 mmHg 65%
16:00 +16°C° 0.3 mm 2 mps 757 mmHg 61%
17:00 +14°C° 0.5 mm 2 mps 757 mmHg 68%
18:00 +13°C° 0.5 mm 2 mps 757 mmHg 74%
19:00 +10°C° 0.5 mm 2 mps 757 mmHg 81%
20:00 +10°C° 0.2 mm 2 mps 757 mmHg 82%
21:00 +9°C° 0.2 mm 2 mps 757 mmHg 83%
22:00 +9°C° 0.2 mm 2 mps 757 mmHg 84%
23:00 +9°C° 0 mm 2 mps 756 mmHg 84%

Day after tomorrow, 20 April, Tuesday

Time Temperature Precipitation Wind Pressure Humidity
00:00 +8°C° 0 mm 2 mps 756 mmHg 85%
01:00 +8°C° 0 mm 2 mps 756 mmHg 85%
02:00 +8°C° 0 mm 2 mps 756 mmHg 86%
03:00 +8°C° 0 mm 2 mps 756 mmHg 87%
04:00 +7°C° 0 mm 2 mps 756 mmHg 87%
05:00 +8°C° 0 mm 2 mps 756 mmHg 86%
06:00 +8°C° 0 mm 2 mps 756 mmHg 85%
07:00 +8°C° 0 mm 2 mps 756 mmHg 84%
08:00 +9°C° 0 mm 2 mps 756 mmHg 79%
09:00 +10°C° 0 mm 2 mps 756 mmHg 74%
10:00 +12°C° 0 mm 2 mps 756 mmHg 69%
11:00 +13°C° 0.1 mm 2 mps 755 mmHg 64%
12:00 +14°C° 0.1 mm 2 mps 755 mmHg 60%
13:00 +15°C° 0.1 mm 2 mps 755 mmHg 55%
14:00 +15°C° 0.1 mm 2 mps 755 mmHg 54%
15:00 +15°C° 0.1 mm 2 mps 754 mmHg 53%
16:00 +15°C° 0.1 mm 1 mps 754 mmHg 53%
17:00 +14°C° 0.1 mm 1 mps 754 mmHg 58%
18:00 +13°C° 0.1 mm 1 mps 754 mmHg 63%
19:00 +11°C° 0.1 mm 1 mps 754 mmHg 69%
20:00 +11°C° 0 mm 1 mps 754 mmHg 70%
21:00 +11°C° 0 mm 1 mps 753 mmHg 72%
22:00 +11°C° 0 mm 1 mps 753 mmHg 73%
23:00 +9°C° 0.1 mm 2 mps 753 mmHg 75%

21 April, Wednesday

Time Temperature Precipitation Wind Pressure Humidity
00:00 +9°C° 0.1 mm 2 mps 753 mmHg 77%
01:00 +9°C° 0.1 mm 2 mps 753 mmHg 79%
02:00 +8°C° 0.2 mm 2 mps 752 mmHg 83%
03:00 +8°C° 0.2 mm 2 mps 752 mmHg 88%
04:00 +7°C° 0.2 mm 2 mps 752 mmHg 92%
05:00 +7°C° 0 mm 2 mps 752 mmHg 91%
06:00 +8°C° 0 mm 2 mps 752 mmHg 90%
07:00 +8°C° 0 mm 3 mps 752 mmHg 89%
08:00 +9°C° 0.1 mm 3 mps 752 mmHg 82%
09:00 +11°C° 0.1 mm 4 mps 752 mmHg 74%
10:00 +12°C° 0.1 mm 4 mps 752 mmHg 67%
11:00 +12°C° 0.1 mm 5 mps 752 mmHg 61%
12:00 +13°C° 0.1 mm 5 mps 752 mmHg 54%
13:00 +13°C° 0.1 mm 5 mps 751 mmHg 48%
14:00 +11°C° 0.1 mm 6 mps 751 mmHg 58%
15:00 +10°C° 0.1 mm 6 mps 751 mmHg 67%
16:00 +8°C° 0.1 mm 6 mps 751 mmHg 76%
17:00 +7°C° 0.5 mm 5 mps 752 mmHg 80%
18:00 +6°C° 0.5 mm 4 mps 752 mmHg 84%
19:00 +6°C° 0.5 mm 2 mps 753 mmHg 88%
20:00 +4°C° 0.1 mm 3 mps 753 mmHg 88%
21:00 +4°C° 0.1 mm 3 mps 753 mmHg 87%
22:00 +3°C° 0.1 mm 3 mps 753 mmHg 86%
23:00 +2°C° 0 mm 3 mps 753 mmHg 88%

22 April, Thursday

Time Temperature Precipitation Wind Pressure Humidity
00:00 +1°C° 0 mm 4 mps 754 mmHg 90%
01:00 0°C° 0 mm 4 mps 754 mmHg 92%
02:00 -1°C° 0 mm 4 mps 754 mmHg 92%
03:00 0°C° 0 mm 3 mps 754 mmHg 93%
04:00 -1°C° 0 mm 3 mps 754 mmHg 94%
05:00 0°C° 0 mm 3 mps 755 mmHg 90%
06:00 0°C° 0 mm 4 mps 755 mmHg 87%
07:00 +1°C° 0 mm 4 mps 755 mmHg 84%
08:00 +1°C° 0.1 mm 4 mps 755 mmHg 78%
09:00 +3°C° 0.1 mm 4 mps 756 mmHg 73%
10:00 +4°C° 0.1 mm 4 mps 756 mmHg 67%
11:00 +5°C° 0.1 mm 4 mps 756 mmHg 66%
12:00 +5°C° 0.1 mm 3 mps 757 mmHg 65%
13:00 +7°C° 0.1 mm 3 mps 757 mmHg 64%
14:00 +7°C° 0.2 mm 3 mps 757 mmHg 64%
15:00 +7°C° 0.2 mm 2 mps 757 mmHg 63%
16:00 +7°C° 0.2 mm 2 mps 758 mmHg 62%
17:00 +6°C° 0.1 mm 2 mps 758 mmHg 67%
18:00 +6°C° 0.1 mm 2 mps 758 mmHg 72%
19:00 +5°C° 0.1 mm 2 mps 759 mmHg 78%
20:00 +4°C° 0 mm 2 mps 759 mmHg 81%
21:00 +3°C° 0 mm 2 mps 760 mmHg 85%
22:00 +3°C° 0 mm 2 mps 760 mmHg 89%
23:00 +2°C° 0 mm 2 mps 760 mmHg 90%

23 April, Friday

Time Temperature Precipitation Wind Pressure Humidity
00:00 +2°C° 0 mm 2 mps 760 mmHg 91%
01:00 +2°C° 0 mm 2 mps 761 mmHg 92%
02:00 +1°C° 0 mm 2 mps 761 mmHg 93%
03:00 +1°C° 0 mm 2 mps 761 mmHg 93%
04:00 +1°C° 0 mm 2 mps 761 mmHg 94%
05:00 +2°C° 0 mm 2 mps 762 mmHg 90%
06:00 +2°C° 0 mm 3 mps 762 mmHg 86%
07:00 +3°C° 0 mm 3 mps 763 mmHg 82%
08:00 +4°C° 0.1 mm 3 mps 763 mmHg 75%
09:00 +7°C° 0.1 mm 3 mps 763 mmHg 68%
10:00 +8°C° 0.1 mm 4 mps 763 mmHg 61%
11:00 +9°C° 0.4 mm 3 mps 763 mmHg 57%
12:00 +10°C° 0.4 mm 3 mps 763 mmHg 53%
13:00 +11°C° 0.4 mm 3 mps 763 mmHg 49%
14:00 +11°C° 0.3 mm 4 mps 763 mmHg 51%
15:00 +11°C° 0.3 mm 4 mps 763 mmHg 53%
16:00 +9°C° 0.3 mm 5 mps 763 mmHg 54%
17:00 +8°C° 0.2 mm 4 mps 764 mmHg 64%
18:00 +7°C° 0.2 mm 4 mps 764 mmHg 73%
19:00 +5°C° 0.2 mm 4 mps 764 mmHg 82%
20:00 +4°C° 0 mm 3 mps 765 mmHg 84%
21:00 +4°C° 0 mm 3 mps 765 mmHg 86%
22:00 +3°C° 0 mm 3 mps 765 mmHg 88%
23:00 +3°C° 0.2 mm 3 mps 765 mmHg 89%
Show more